| time (UTC) | temp C | wind direction | speed KPH | gust KPH | rain 1hr cm | rain 24hr cm | rain mn cm | humidity % | barometer mb |
| 20260504160112 | 23 | 190 | 4.8 | 8.0 | 0.00 | 0.00 | 0.00 | 46 | 1002.9 |
| 20260504151039 | 22 | 350 | 4.8 | 8.0 | 0.00 | 0.00 | 0.00 | 48 | 1002.7 |
| 20260504150537 | 22 | 59 | 4.8 | 9.7 | 0.00 | 0.00 | 0.00 | 48 | 1003.1 |
| 20260504141003 | 19 | 180 | 3.2 | 4.8 | 0.00 | 0.00 | 0.00 | 55 | 1003.3 |
| 20260504140459 | 19 | 179 | 0.0 | 0.0 | 0.00 | 0.00 | 0.00 | 55 | 1003.3 |
| 20260504130424 | 18 | 198 | 4.8 | 4.8 | 0.00 | 0.00 | 0.00 | 59 | 1003.5 |
| 20260504110310 | 12 | 165 | 0.0 | 0.0 | 0.00 | 0.00 | 0.00 | 88 | 1003.4 |
| 20260504100228 | 12 | 148 | 0.0 | 0.0 | 0.00 | 0.00 | 0.00 | 86 | 1004.1 |
| 20260504081621 | 12 | 172 | 0.0 | 0.0 | 0.00 | 0.00 | 0.00 | 84 | 1004.6 |
| 20260504081117 | 12 | 172 | 0.0 | 0.0 | 0.00 | 0.00 | 0.00 | 83 | 1004.7 |
| 20260504080614 | 13 | 172 | 0.0 | 0.0 | 0.00 | 0.00 | 0.00 | 83 | 1004.7 |
| 20260504080111 | 13 | 172 | 0.0 | 0.0 | 0.00 | 0.00 | 0.00 | 82 | 1004.9 |
| 20260504050427 | 17 | 82 | 1.6 | 3.2 | 0.00 | 0.00 | 0.00 | 71 | 1007.1 |
| 20260504045924 | 17 | 109 | 1.6 | 1.6 | 0.00 | 0.00 | 0.00 | 71 | 1006.9 |
| 20260504045420 | 16 | 183 | 1.6 | 1.6 | 0.00 | 0.00 | 0.00 | 72 | 1007.0 |
| 20260504044916 | 16 | 99 | 0.0 | 0.0 | 0.00 | 0.00 | 0.00 | 73 | 1006.9 |
| 20260504044414 | 16 | 134 | 0.0 | 1.6 | 0.00 | 0.00 | 0.00 | 75 | 1007.2 |
| 20260504043911 | 16 | 130 | 0.0 | 0.0 | 0.00 | 0.00 | 0.00 | 77 | 1007.1 |
| 20260504043408 | 16 | 155 | 0.0 | 0.0 | 0.00 | 0.00 | 0.00 | 77 | 1007.0 |
| 20260504042905 | 16 | 152 | 0.0 | 0.0 | 0.00 | 0.00 | 0.00 | 77 | 1007.0 |
| 20260504042402 | 15 | 170 | 0.0 | 1.6 | 0.00 | 0.00 | 0.00 | 78 | 1007.0 |
| 20260504041858 | 15 | 143 | 0.0 | 0.0 | 0.00 | 0.00 | 0.00 | 79 | 1007.3 |
| 20260504041354 | 15 | 143 | 1.6 | 1.6 | 0.00 | 0.00 | 0.00 | 78 | 1007.1 |
| 20260504040850 | 15 | 143 | 0.0 | 0.0 | 0.00 | 0.00 | 0.00 | 78 | 1007.3 |
| 20260504040348 | 15 | 142 | 0.0 | 0.0 | 0.00 | 0.00 | 0.00 | 77 | 1007.0 |
| 20260504035844 | 15 | 157 | 0.0 | 0.0 | 0.00 | 0.00 | 0.00 | 77 | 1006.9 |
| 20260504035342 | 16 | 157 | 0.0 | 0.0 | 0.00 | 0.00 | 0.00 | 76 | 1007.1 |
| 20260504034838 | 16 | 158 | 0.0 | 0.0 | 0.00 | 0.00 | 0.00 | 75 | 1006.8 |
| 20260504034336 | 16 | 158 | 0.0 | 0.0 | 0.00 | 0.00 | 0.00 | 74 | 1007.1 |
| 20260504033833 | 16 | 158 | 0.0 | 0.0 | 0.00 | 0.00 | 0.00 | 73 | 1007.2 |
| 20260504033331 | 16 | 166 | 0.0 | 0.0 | 0.00 | 0.00 | 0.00 | 71 | 1006.9 |
| 20260504032827 | 16 | 167 | 0.0 | 0.0 | 0.00 | 0.00 | 0.00 | 71 | 1007.2 |
| 20260504032324 | 16 | 167 | 1.6 | 1.6 | 0.00 | 0.00 | 0.00 | 71 | 1007.0 |
| 20260504031821 | 16 | 167 | 0.0 | 0.0 | 0.00 | 0.00 | 0.00 | 70 | 1006.9 |
| 20260504031319 | 17 | 145 | 0.0 | 0.0 | 0.00 | 0.00 | 0.00 | 69 | 1007.0 |
| 20260504030815 | 17 | 145 | 0.0 | 0.0 | 0.00 | 0.00 | 0.00 | 69 | 1007.1 |
| 20260504030312 | 17 | 168 | 0.0 | 0.0 | 0.00 | 0.00 | 0.00 | 68 | 1007.3 |
| 20260504025808 | 17 | 161 | 0.0 | 0.0 | 0.00 | 0.00 | 0.00 | 67 | 1007.1 |
| 20260504025306 | 17 | 162 | 0.0 | 0.0 | 0.00 | 0.00 | 0.00 | 65 | 1007.3 |
| 20260504024802 | 17 | 162 | 0.0 | 0.0 | 0.00 | 0.00 | 0.00 | 63 | 1007.3 |
| 20260504024258 | 17 | 156 | 0.0 | 0.0 | 0.00 | 0.00 | 0.00 | 63 | 1007.2 |
| 20260504023755 | 17 | 156 | 0.0 | 0.0 | 0.00 | 0.00 | 0.00 | 62 | 1007.2 |
| 20260504023252 | 18 | 155 | 0.0 | 0.0 | 0.00 | 0.00 | 0.00 | 62 | 1006.9 |
| 20260504022747 | 18 | 155 | 0.0 | 0.0 | 0.00 | 0.00 | 0.00 | 61 | 1007.0 |
| 20260504022244 | 18 | 156 | 0.0 | 1.6 | 0.00 | 0.00 | 0.00 | 61 | 1007.2 |
| 20260504021741 | 18 | 149 | 0.0 | 0.0 | 0.00 | 0.00 | 0.00 | 61 | 1007.1 |
| 20260504021238 | 18 | 136 | 0.0 | 0.0 | 0.00 | 0.00 | 0.00 | 60 | 1007.4 |
| 20260504020735 | 19 | 140 | 0.0 | 0.0 | 0.00 | 0.00 | 0.00 | 59 | 1007.1 |
| 20260504020231 | 19 | 139 | 0.0 | 0.0 | 0.00 | 0.00 | 0.00 | 59 | 1007.1 |
| 20260504015728 | 20 | 160 | 0.0 | 0.0 | 0.00 | 0.00 | 0.00 | 59 | 1007.2 |
| 20260504015224 | 20 | 170 | 0.0 | 0.0 | 0.00 | 0.00 | 0.00 | 58 | 1007.2 |
| 20260504014720 | 20 | 181 | 1.6 | 3.2 | 0.00 | 0.00 | 0.00 | 57 | 1006.9 |
| 20260504014217 | 20 | 144 | 0.0 | 0.0 | 0.00 | 0.00 | 0.00 | 56 | 1007.1 |
| 20260504013715 | 20 | 177 | 0.0 | 0.0 | 0.00 | 0.00 | 0.00 | 54 | 1007.1 |
| 20260504013212 | 21 | 162 | 0.0 | 0.0 | 0.00 | 0.00 | 0.00 | 53 | 1007.0 |
| 20260504012709 | 21 | 178 | 0.0 | 1.6 | 0.00 | 0.00 | 0.00 | 52 | 1007.0 |
| 20260504012207 | 21 | 162 | 0.0 | 0.0 | 0.00 | 0.00 | 0.00 | 51 | 1006.9 |
| 20260504011703 | 21 | 160 | 0.0 | 0.0 | 0.00 | 0.00 | 0.00 | 51 | 1007.1 |
| 20260504011200 | 21 | 160 | 0.0 | 0.0 | 0.00 | 0.00 | 0.00 | 52 | 1007.1 |
| 20260504010656 | 22 | 160 | 0.0 | 0.0 | 0.00 | 0.00 | 0.00 | 49 | 1007.0 |
| 20260504010151 | 22 | 160 | 0.0 | 0.0 | 0.00 | 0.00 | 0.00 | 49 | 1006.8 |
| 20260504005649 | 22 | 168 | 1.6 | 1.6 | 0.00 | 0.00 | 0.00 | 49 | 1006.8 |
| 20260504005145 | 22 | 169 | 0.0 | 1.6 | 0.00 | 0.00 | 0.00 | 50 | 1007.0 |
| 20260504004644 | 22 | 167 | 1.6 | 1.6 | 0.00 | 0.00 | 0.00 | 49 | 1006.7 |
| 20260504004140 | 23 | 178 | 1.6 | 3.2 | 0.00 | 0.00 | 0.00 | 52 | 1006.7 |
| 20260504003637 | 23 | 165 | 0.0 | 0.0 | 0.00 | 0.00 | 0.00 | 49 | 1006.9 |
| 20260504003133 | 23 | 178 | 1.6 | 3.2 | 0.00 | 0.00 | 0.00 | 50 | 1007.0 |
| 20260504002630 | 23 | 177 | 0.0 | 1.6 | 0.00 | 0.00 | 0.00 | 48 | 1007.0 |
| 20260504002128 | 25 | 177 | 1.6 | 3.2 | 0.00 | 0.00 | 0.00 | 47 | 1006.9 |
| 20260504001625 | 25 | 157 | 0.0 | 0.0 | 0.00 | 0.00 | 0.00 | 46 | 1006.8 |
| 20260504001121 | 25 | 166 | 0.0 | 0.0 | 0.00 | 0.00 | 0.00 | 45 | 1007.0 |
| 20260504000619 | 25 | 167 | 0.0 | 1.6 | 0.00 | 0.00 | 0.00 | 40 | 1007.1 |
| 20260504000116 | 26 | 109 | 1.6 | 1.6 | 0.00 | 0.00 | 0.00 | 40 | 1007.0 |
| 20260503235614 | 26 | 132 | 0.0 | 0.0 | 0.00 | 0.00 | 0.00 | 38 | 1006.8 |
| 20260503235110 | 26 | 131 | 0.0 | 0.0 | 0.00 | 0.00 | 0.00 | 37 | 1006.9 |
| 20260503234603 | 27 | 131 | 0.0 | 0.0 | 0.00 | 0.00 | 0.00 | 37 | 1006.9 |
| 20260503234100 | 27 | 125 | 0.0 | 0.0 | 0.00 | 0.00 | 0.00 | 34 | 1007.0 |
| 20260503233557 | 27 | 137 | 0.0 | 0.0 | 0.00 | 0.00 | 0.00 | 34 | 1007.0 |
| 20260503233052 | 27 | 114 | 1.6 | 1.6 | 0.00 | 0.00 | 0.00 | 33 | 1007.1 |
| 20260503232550 | 27 | 160 | 0.0 | 0.0 | 0.00 | 0.00 | 0.00 | 33 | 1007.1 |
| 20260503232047 | 27 | 214 | 0.0 | 0.0 | 0.00 | 0.00 | 0.00 | 32 | 1007.1 |
| 20260503231545 | 28 | 150 | 0.0 | 0.0 | 0.00 | 0.00 | 0.00 | 31 | 1007.1 |
| 20260503231041 | 28 | 112 | 0.0 | 1.6 | 0.00 | 0.00 | 0.00 | 30 | 1007.0 |
| 20260503230538 | 28 | 178 | 0.0 | 1.6 | 0.00 | 0.00 | 0.00 | 30 | 1007.1 |
| 20260503230036 | 28 | 219 | 0.0 | 1.6 | 0.00 | 0.00 | 0.00 | 30 | 1007.0 |
| 20260503225532 | 29 | 167 | 4.8 | 8.0 | 0.00 | 0.00 | 0.00 | 30 | 1007.0 |
| 20260503225027 | 28 | 174 | 3.2 | 4.8 | 0.00 | 0.00 | 0.00 | 29 | 1007.1 |
| 20260503224525 | 28 | 200 | 3.2 | 3.2 | 0.00 | 0.00 | 0.00 | 30 | 1007.2 |
| 20260503224023 | 29 | 211 | 4.8 | 8.0 | 0.00 | 0.00 | 0.00 | 29 | 1007.3 |
| 20260503223521 | 29 | 172 | 0.0 | 1.6 | 0.00 | 0.00 | 0.00 | 32 | 1007.3 |
| 20260503223016 | 28 | 184 | 0.0 | 0.0 | 0.00 | 0.00 | 0.00 | 30 | 1007.3 |
| 20260503222514 | 28 | 169 | 0.0 | 0.0 | 0.00 | 0.00 | 0.00 | 31 | 1007.3 |
| 20260503222012 | 28 | 116 | 1.6 | 1.6 | 0.00 | 0.00 | 0.00 | 30 | 1007.5 |
| 20260503221510 | 28 | 137 | 1.6 | 4.8 | 0.00 | 0.00 | 0.00 | 30 | 1007.6 |
| 20260503221007 | 29 | 235 | 4.8 | 8.0 | 0.00 | 0.00 | 0.00 | 30 | 1007.6 |
| 20260503220503 | 28 | 169 | 0.0 | 1.6 | 0.00 | 0.00 | 0.00 | 30 | 1007.5 |
| 20260503220000 | 28 | 214 | 4.8 | 9.7 | 0.00 | 0.00 | 0.00 | 28 | 1007.7 |
| 20260503215457 | 28 | 73 | 0.0 | 1.6 | 0.00 | 0.00 | 0.00 | 30 | 1007.6 |
| 20260503214954 | 29 | 256 | 4.8 | 4.8 | 0.00 | 0.00 | 0.00 | 28 | 1007.8 |
| 20260503214452 | 29 | 343 | 1.6 | 3.2 | 0.00 | 0.00 | 0.00 | 29 | 1007.8 |
| 20260503213949 | 30 | 164 | 4.8 | 11.3 | 0.00 | 0.00 | 0.00 | 29 | 1007.8 |
| 20260503213447 | 28 | 189 | 0.0 | 0.0 | 0.00 | 0.00 | 0.00 | 31 | 1007.8 |
| 20260503212943 | 28 | 179 | 3.2 | 8.0 | 0.00 | 0.00 | 0.00 | 31 | 1007.8 |
| 20260503212441 | 28 | 197 | 4.8 | 8.0 | 0.00 | 0.00 | 0.00 | 31 | 1008.0 |
| 20260503211938 | 28 | 206 | 4.8 | 8.0 | 0.00 | 0.00 | 0.00 | 34 | 1008.0 |
| 20260503211435 | 29 | 221 | 6.4 | 8.0 | 0.00 | 0.00 | 0.00 | 33 | 1008.1 |
| 20260503210930 | 28 | 196 | 3.2 | 4.8 | 0.00 | 0.00 | 0.00 | 34 | 1008.3 |
| 20260503210427 | 28 | 312 | 1.6 | 3.2 | 0.00 | 0.00 | 0.00 | 33 | 1008.3 |
| 20260503205922 | 28 | 12 | 3.2 | 9.7 | 0.00 | 0.00 | 0.00 | 33 | 1008.2 |
| 20260503205420 | 28 | 200 | 1.6 | 4.8 | 0.00 | 0.00 | 0.00 | 34 | 1008.5 |
| 20260503204916 | 28 | 175 | 1.6 | 1.6 | 0.00 | 0.00 | 0.00 | 34 | 1008.6 |
| 20260503204413 | 28 | 118 | 1.6 | 3.2 | 0.00 | 0.00 | 0.00 | 35 | 1008.6 |
| 20260503203910 | 28 | 198 | 4.8 | 4.8 | 0.00 | 0.00 | 0.00 | 35 | 1008.7 |
| 20260503203408 | 28 | 137 | 1.6 | 3.2 | 0.00 | 0.00 | 0.00 | 34 | 1009.1 |
| 20260503202904 | 27 | 220 | 8.0 | 9.7 | 0.00 | 0.00 | 0.00 | 34 | 1008.7 |
| 20260503202403 | 27 | 182 | 0.0 | 0.0 | 0.00 | 0.00 | 0.00 | 34 | 1009.1 |
| 20260503201901 | 27 | 149 | 0.0 | 0.0 | 0.00 | 0.00 | 0.00 | 36 | 1009.3 |
| 20260503201357 | 27 | 97 | 6.4 | 11.3 | 0.00 | 0.00 | 0.00 | 34 | 1009.5 |
| 20260503200855 | 27 | 218 | 8.0 | 11.3 | 0.00 | 0.00 | 0.00 | 33 | 1009.2 |
| 20260503200350 | 27 | 140 | 1.6 | 1.6 | 0.00 | 0.00 | 0.00 | 36 | 1009.4 |
| 20260503195848 | 27 | 195 | 4.8 | 8.0 | 0.00 | 0.00 | 0.00 | 35 | 1009.3 |
| 20260503195344 | 27 | 163 | 0.0 | 0.0 | 0.00 | 0.00 | 0.00 | 36 | 1009.5 |
| 20260503194842 | 27 | 183 | 3.2 | 4.8 | 0.00 | 0.00 | 0.00 | 34 | 1009.3 |
| 20260503194337 | 27 | 200 | 1.6 | 3.2 | 0.00 | 0.00 | 0.00 | 36 | 1009.8 |
| 20260503193834 | 27 | 137 | 1.6 | 3.2 | 0.00 | 0.00 | 0.00 | 36 | 1009.7 |
| 20260503193330 | 27 | 80 | 3.2 | 3.2 | 0.00 | 0.00 | 0.00 | 34 | 1009.8 |
| 20260503192826 | 27 | 155 | 3.2 | 3.2 | 0.00 | 0.00 | 0.00 | 36 | 1009.8 |
| 20260503192322 | 26 | 136 | 8.0 | 11.3 | 0.00 | 0.00 | 0.00 | 35 | 1009.8 |
| 20260503191818 | 26 | 165 | 0.0 | 0.0 | 0.00 | 0.00 | 0.00 | 38 | 1009.9 |
| 20260503191315 | 26 | 198 | 1.6 | 3.2 | 0.00 | 0.00 | 0.00 | 35 | 1010.1 |
| 20260503190812 | 26 | 161 | 1.6 | 1.6 | 0.00 | 0.00 | 0.00 | 39 | 1010.2 |
| 20260503190309 | 26 | 220 | 4.8 | 11.3 | 0.00 | 0.00 | 0.00 | 36 | 1009.9 |
| 20260503185806 | 26 | 152 | 0.0 | 0.0 | 0.00 | 0.00 | 0.00 | 38 | 1010.4 |
| 20260503185304 | 26 | 187 | 1.6 | 3.2 | 0.00 | 0.00 | 0.00 | 38 | 1010.1 |
| 20260503184801 | 26 | 206 | 1.6 | 3.2 | 0.00 | 0.00 | 0.00 | 36 | 1010.5 |
| 20260503184258 | 26 | 230 | 4.8 | 8.0 | 0.00 | 0.00 | 0.00 | 38 | 1010.4 |
| 20260503183754 | 26 | 99 | 1.6 | 3.2 | 0.00 | 0.00 | 0.00 | 37 | 1010.5 |
| 20260503183252 | 26 | 182 | 3.2 | 3.2 | 0.00 | 0.00 | 0.00 | 37 | 1010.5 |
| 20260503182749 | 25 | 132 | 0.0 | 1.6 | 0.00 | 0.00 | 0.00 | 39 | 1010.7 |
| 20260503182248 | 26 | 207 | 3.2 | 3.2 | 0.00 | 0.00 | 0.00 | 37 | 1010.7 |
| 20260503181744 | 26 | 273 | 4.8 | 4.8 | 0.00 | 0.00 | 0.00 | 37 | 1010.8 |
| 20260503181242 | 25 | 335 | 1.6 | 3.2 | 0.00 | 0.00 | 0.00 | 39 | 1010.9 |
| 20260503180738 | 25 | 135 | 3.2 | 3.2 | 0.00 | 0.00 | 0.00 | 38 | 1011.0 |
| 20260503180236 | 25 | 182 | 3.2 | 4.8 | 0.00 | 0.00 | 0.00 | 38 | 1010.9 |
| 20260503175732 | 24 | 88 | 4.8 | 8.0 | 0.00 | 0.00 | 0.00 | 39 | 1011.0 |
| 20260503175231 | 24 | 77 | 4.8 | 11.3 | 0.00 | 0.00 | 0.00 | 39 | 1011.1 |
| 20260503174726 | 24 | 241 | 8.0 | 9.7 | 0.00 | 0.00 | 0.00 | 38 | 1011.1 |
| 20260503174224 | 24 | 211 | 14.5 | 20.9 | 0.00 | 0.00 | 0.00 | 39 | 1011.3 |
| 20260503173719 | 24 | 56 | 3.2 | 3.2 | 0.00 | 0.00 | 0.00 | 40 | 1011.5 |
| 20260503173215 | 23 | 184 | 4.8 | 9.7 | 0.00 | 0.00 | 0.00 | 39 | 1011.0 |
| 20260503172712 | 24 | 150 | 8.0 | 12.9 | 0.00 | 0.00 | 0.00 | 40 | 1011.3 |
| 20260503172209 | 24 | 211 | 6.4 | 12.9 | 0.00 | 0.00 | 0.00 | 39 | 1011.4 |
| 20260503171705 | 23 | 1 | 1.6 | 8.0 | 0.00 | 0.00 | 0.00 | 40 | 1011.5 |
| 20260503171203 | 23 | 236 | 17.7 | 20.9 | 0.00 | 0.00 | 0.00 | 39 | 1011.7 |
| 20260503170700 | 23 | 107 | 3.2 | 3.2 | 0.00 | 0.00 | 0.00 | 41 | 1011.7 |
| 20260503170157 | 23 | 202 | 6.4 | 9.7 | 0.00 | 0.00 | 0.00 | 42 | 1012.0 |